Caro, MI

9:38 PM EDT on July 23, 2017 (GMT -0400)
Caro

Weather History for KCFS - January, 2014

Change the Weather History Date:

Tuesday, January 14, 2014

  Actual Average (KMBS) Record (KMBS)
Temperature  
Mean Temperature 30 °F -  
Max Temperature 38 °F 24 °F 36 °F (2014)
Min Temperature 21 °F 12 °F -6 °F (2015)
Degree Days  
Heating Degree Days 36    
Moisture  
Dew Point 25 °F    
Average Humidity 76    
Maximum Humidity 96    
Minimum Humidity 54    
Precipitation  
Precipitation 0.00 in - - ()
Sea Level Pressure  
Sea Level Pressure 29.68 in    
Wind  
Wind Speed 7 mph (SSW)    
Max Wind Speed 22 mph    
Max Gust Speed 26 mph    
Visibility 9 miles    
Events Snow    
Averages and records for this station are not official NWS values.
T = Trace of Precipitation, MM = Missing Value Source: NWS Daily Summary

Daily Weather History Graph

Daily Weather History Graph

Search for Another Location

Airport or City:

Trip Planner

Search our weather history database for the weather conditions in past years. The results will help you decide how hot, cold, wet, or windy it might be!

Date:

Astronomy

Jan. 14, 2014 Rise Set
Actual Time 8:04 AM EST 5:22 PM EST
Civil Twilight 7:32 AM EST 5:53 PM EST
Nautical Twilight 6:56 AM EST 6:29 PM EST
Astronomical Twilight 6:22 AM EST 7:03 PM EST
Moon 4:27 PM EST (1/14) 6:37 AM EST (1/14)
Length of Visible Light 10h 21m
Length of Day
9h 17m
Waxing Gibbous, 98% of the Moon is Illuminated
Jan 14
Waxing Gibbous
Jan 15
Full
Jan 24
Last Quarter
Jan 30
New
Feb 6
First Quarter

Hourly Weather History & Observations

Time (EST) Temp. Windchill Dew Point Humidity Pressure Visibility Wind Dir Wind Speed Gust Speed Precip Events Conditions
12:14 AM 36.1 °F 29.3 °F 32.0 °F 85% 29.62 in 10.0 mi WSW 9.2 mph - N/A   Overcast
12:35 AM 36.0 °F 29.0 °F 31.8 °F 85% 29.62 in 10.0 mi WSW 9.2 mph - N/A   Overcast
12:54 AM 35.8 °F 28.8 °F 31.1 °F 83% 29.63 in 10.0 mi WSW 9.2 mph - N/A   Overcast
1:14 AM 35.6 °F 28.6 °F 30.4 °F 81% 29.64 in 10.0 mi WSW 9.2 mph - N/A   Overcast
1:35 AM 35.6 °F 29.9 °F 29.8 °F 80% 29.65 in 10.0 mi West 6.9 mph - N/A   Overcast
1:54 AM 35.1 °F 27.9 °F 28.6 °F 77% 29.65 in 10.0 mi West 9.2 mph - N/A   Overcast
2:14 AM 34.9 °F 26.6 °F 28.8 °F 78% 29.67 in 10.0 mi West 11.5 mph - N/A   Overcast
2:35 AM 34.7 °F 26.9 °F 27.7 °F 76% 29.67 in 10.0 mi West 10.4 mph - N/A   Overcast
2:54 AM 34.3 °F 27.0 °F 27.7 °F 77% 29.68 in 10.0 mi WSW 9.2 mph - N/A   Overcast
3:15 AM 34.0 °F 26.6 °F 26.4 °F 74% 29.69 in 10.0 mi West 9.2 mph - N/A   Overcast
3:35 AM 33.8 °F 27.0 °F 25.9 °F 73% 29.69 in 10.0 mi WSW 8.1 mph - N/A   Overcast
3:54 AM 32.9 °F 24.7 °F 24.6 °F 72% 29.69 in 10.0 mi West 10.4 mph - N/A   Overcast
4:15 AM 32.7 °F 23.9 °F 23.0 °F 67% 29.70 in 10.0 mi WSW 11.5 mph - N/A   Overcast
4:34 AM 32.4 °F 23.0 °F 23.0 °F 68% 29.70 in 10.0 mi West 12.7 mph 16.1 mph N/A   Overcast
4:55 AM 31.1 °F 25.4 °F 22.1 °F 69% 29.69 in 10.0 mi West 5.8 mph - N/A   Scattered Clouds
5:14 AM 29.8 °F - 21.9 °F 72% 29.70 in 10.0 mi Calm Calm - N/A   Clear
5:34 AM 28.0 °F - 21.6 °F 77% 29.70 in 10.0 mi Calm Calm - N/A   Clear
5:55 AM 25.7 °F - 20.1 °F 79% 29.71 in 10.0 mi Calm Calm - N/A   Clear
6:14 AM 25.0 °F - 21.0 °F 85% 29.71 in 10.0 mi Calm Calm - N/A   Clear
6:35 AM 23.7 °F - 19.8 °F 85% 29.71 in 10.0 mi Calm Calm - N/A   Clear
6:55 AM 24.1 °F - 21.2 °F 89% 29.71 in 10.0 mi Calm Calm - N/A   Clear
7:14 AM 23.0 °F - 20.5 °F 90% 29.71 in 10.0 mi Calm Calm - N/A   Clear
7:35 AM 22.3 °F - 19.9 °F 91% 29.72 in 10.0 mi Calm Calm - N/A   Clear
7:55 AM 21.2 °F - 19.2 °F 92% 29.72 in 10.0 mi Calm Calm - N/A   Clear
8:14 AM 23.0 °F - 21.0 °F 92% 29.73 in 10.0 mi Calm Calm - N/A   Clear
8:35 AM 21.2 °F - 19.4 °F 93% 29.73 in 7.0 mi Calm Calm - N/A   Clear
8:54 AM 24.8 °F - 23.0 °F 93% 29.74 in 10.0 mi Calm Calm - N/A   Clear
9:14 AM 25.3 °F - 23.0 °F 91% 29.75 in 7.0 mi Calm Calm - N/A   Clear
9:35 AM 27.7 °F 22.4 °F 25.0 °F 90% 29.75 in 7.0 mi SSW 4.6 mph - N/A   Clear
9:54 AM 29.1 °F 24.1 °F 25.3 °F 86% 29.76 in 7.0 mi SW 4.6 mph - N/A   Clear
10:15 AM 30.2 °F 25.4 °F 25.7 °F 83% 29.77 in 7.0 mi SSW 4.6 mph - N/A   Clear
10:35 AM 31.5 °F 28.1 °F 26.1 °F 80% 29.76 in 7.0 mi SSW 3.5 mph - N/A   Clear
10:54 AM 32.0 °F 26.4 °F 25.7 °F 78% 29.75 in 10.0 mi South 5.8 mph - N/A   Clear
11:15 AM 32.9 °F 27.5 °F 25.3 °F 74% 29.75 in 10.0 mi South 5.8 mph - N/A   Clear
11:35 AM 33.6 °F 26.8 °F 25.0 °F 71% 29.74 in 10.0 mi South 8.1 mph - N/A   Clear
11:54 AM 34.2 °F 29.0 °F 25.0 °F 69% 29.73 in 10.0 mi SSW 5.8 mph - N/A   Clear
12:15 PM 34.7 °F 28.8 °F 24.6 °F 67% 29.72 in 10.0 mi South 6.9 mph - N/A   Clear
12:35 PM 34.9 °F 29.0 °F 24.3 °F 65% 29.71 in 10.0 mi South 6.9 mph - N/A   Clear
12:54 PM 35.1 °F 29.3 °F 23.9 °F 64% 29.70 in 10.0 mi South 6.9 mph - N/A   Clear
1:15 PM 36.0 °F 29.6 °F 23.7 °F 61% 29.70 in 10.0 mi South 8.1 mph - N/A   Clear
1:34 PM 36.5 °F 30.3 °F 22.6 °F 57% 29.70 in 10.0 mi South 8.1 mph - N/A   Clear
1:54 PM 36.9 °F 31.4 °F 23.0 °F 57% 29.69 in 10.0 mi SSW 6.9 mph - N/A   Scattered Clouds
2:15 PM 37.4 °F 32.8 °F 24.3 °F 59% 29.68 in 10.0 mi SE 5.8 mph - N/A   Scattered Clouds
2:34 PM 37.0 °F 31.6 °F 23.5 °F 58% 29.68 in 10.0 mi South 6.9 mph - N/A   Scattered Clouds
2:55 PM 37.2 °F 31.9 °F 22.3 °F 55% 29.68 in 10.0 mi SSE 6.9 mph - N/A   Overcast
3:15 PM 37.6 °F 31.0 °F 22.3 °F 54% 29.67 in 10.0 mi SE 9.2 mph - N/A   Overcast
3:34 PM 37.4 °F 32.1 °F 23.4 °F 57% 29.67 in 10.0 mi SE 6.9 mph - N/A   Overcast
3:55 PM 38.1 °F 32.9 °F 23.0 °F 55% 29.66 in 10.0 mi SE 6.9 mph - N/A   Overcast
4:14 PM 37.8 °F 33.3 °F 23.2 °F 56% 29.65 in 10.0 mi ESE 5.8 mph - N/A   Overcast
4:35 PM 37.2 °F 30.6 °F 24.6 °F 60% 29.65 in 10.0 mi ESE 9.2 mph - N/A   Overcast
4:55 PM 36.9 °F 31.4 °F 25.5 °F 64% 29.65 in 10.0 mi SE 6.9 mph - N/A   Overcast
5:14 PM 36.9 °F 31.4 °F 26.1 °F 65% 29.65 in 10.0 mi SE 6.9 mph - N/A   Overcast
5:35 PM 36.5 °F 30.3 °F 26.6 °F 67% 29.66 in 10.0 mi South 8.1 mph - N/A   Overcast
5:55 PM 36.9 °F 29.1 °F 25.9 °F 64% 29.64 in 7.0 mi SE 11.5 mph 18.4 mph N/A Snow Light Snow
6:14 PM 36.5 °F 31.8 °F 26.6 °F 67% 29.65 in 10.0 mi South 5.8 mph - N/A   Overcast
6:35 PM 36.7 °F 26.3 °F 26.1 °F 65% 29.65 in 10.0 mi South 19.6 mph 25.3 mph N/A   Overcast
6:55 PM 34.7 °F 25.1 °F 29.1 °F 80% 29.65 in 2.5 mi SSW 15.0 mph 19.6 mph N/A Snow Light Snow
7:14 PM 33.4 °F 26.6 °F 31.1 °F 91% 29.65 in 2.5 mi South 8.1 mph - N/A Snow Light Snow
7:35 PM 32.9 °F 26.7 °F 31.6 °F 95% 29.65 in 2.0 mi South 6.9 mph - N/A Snow Light Snow
7:54 PM 33.1 °F 25.5 °F 32.0 °F 96% 29.65 in 4.0 mi SSE 9.2 mph - N/A Snow Light Snow
8:15 PM 33.3 °F 27.1 °F 32.0 °F 95% 29.64 in 5.0 mi South 6.9 mph - N/A   Overcast
8:35 PM 33.8 °F 27.0 °F 32.0 °F 93% 29.64 in 7.0 mi South 8.1 mph - N/A   Overcast
8:54 PM 34.0 °F 27.2 °F 32.0 °F 92% 29.64 in 7.0 mi South 8.1 mph - N/A   Overcast
9:15 PM 34.0 °F 26.0 °F 32.0 °F 92% 29.64 in 5.0 mi South 10.4 mph - N/A   Overcast
9:34 PM 34.0 °F 26.0 °F 32.0 °F 92% 29.64 in 7.0 mi South 10.4 mph - N/A   Overcast
9:55 PM 33.1 °F 20.9 °F 30.4 °F 90% 29.65 in 7.0 mi WSW 21.9 mph 25.3 mph N/A   Overcast
10:14 PM 32.0 °F 21.2 °F 25.7 °F 78% 29.65 in 10.0 mi WSW 16.1 mph 24.2 mph N/A   Overcast
10:34 PM 31.5 °F 20.5 °F 23.0 °F 71% 29.65 in 10.0 mi WSW 16.1 mph 26.5 mph N/A   Overcast
10:55 PM 31.1 °F 21.4 °F 21.4 °F 67% 29.66 in 10.0 mi WSW 12.7 mph 20.7 mph N/A   Overcast
11:14 PM 30.9 °F 21.2 °F 21.6 °F 68% 29.65 in 10.0 mi WSW 12.7 mph - N/A   Overcast
11:35 PM 30.9 °F 21.2 °F 21.7 °F 69% 29.65 in 10.0 mi SW 12.7 mph - N/A   Overcast
11:55 PM 30.9 °F 21.7 °F 22.1 °F 70% 29.65 in 10.0 mi SW 11.5 mph - N/A Snow Light Snow